Location: Lombard
(41.8800°N, 88.0080°W)
Time: 05:39:33
(UTC-05:00)

Oscar 19 - Visible Passes

Search period start: 22 May 2022 00:00
Search period end: 01 June 2022 00:00
Orbit: 774 x 789 km, 98.8° (Epoch: 21 May)

Date Brightness Start Highest point End Pass type
(mag) Time Alt. Az. Time Alt. Az. Time Alt. Az.
22 May 12.1 03:39:49 10° NNE 03:44:30 33° E 03:49:08 10° SSE visible
23 May 13.0 03:08:53 10° NE 03:12:13 17° E 03:15:31 10° SE visible
23 May 10.8 04:46:46 10° N 04:51:52 59° WNW 04:56:55 10° SSW visible
24 May 10.9 04:14:42 10° NNE 04:19:54 71° ESE 04:25:02 10° S visible
25 May 12.0 03:43:01 10° NNE 03:47:47 35° E 03:52:28 10° SSE visible
26 May 13.0 03:11:59 10° NE 03:15:30 18° E 03:18:58 10° SE visible
27 May 10.8 04:17:57 10° NNE 04:23:09 76° ESE 04:28:18 10° S visible
28 May 11.9 03:46:14 10° NNE 03:51:02 38° E 03:55:48 10° SSE visible
29 May 12.9 03:15:07 10° NE 03:18:46 19° E 03:22:24 10° SE visible
30 May 10.8 04:21:12 10° NNE 04:26:24 81° ESE 04:31:33 10° SSW visible
31 May 11.8 03:49:26 10° NNE 03:54:19 40° E 03:59:07 10° SSE visible
